Home > Weather > Plovdiv > Past weeks

Flag for Bulgaria Past Weather in Plovdiv, Bulgaria — Yesterday and Last 2 Weeks

Now
70 °F

Mild.


Feels Like: 70 °F
Forecast: 64 / 92 °F
Wind: 3 mph from South

Location: Plovdiv Airport

Current Time: Jul 24, 2016 at 6:00:07 AM

Latest Report: Jul 24, 2016 at 5:30 AM


Visibility: N/A

Pressure: 29.98 "Hg

Humidity: 64%

Dew Point: 57 °F

Location of PlovdivLocation

Past Weather in Plovdiv — Graph

°F

Plovdiv Temperature Yesterday

Maximum temperature yesterday: 95 °F (at 3:30 PM)
Minimum temperature yesterday: 63 °F (at 6:00 AM)
Average temperature yesterday: 82 °F

High & Low Weather Summary for the Past Weeks

 TemperatureHumidityPressure
High97 °F (Jul 14, 5:00 PM)100% (Jul 16, 5:00 AM)30.09 "Hg (Jul 16, 5:00 AM)
Low57 °F (Jul 9, 6:00 AM)19% (Jul 23, 3:30 PM)29.68 "Hg (Jul 14, 8:00 PM)
Average78 °F50%29.93 "Hg
* Reported Jul 9 5:00 AM — Jul 24 5:00 AM, Plovdiv, Weather by CustomWeather, © 2016

Note: Actual official high and low records may vary slightly from our data, if they occured in-between our weather recording intervals... More about our weather records

Advertising

Plovdiv Weather History for the Previous 24 Hours

Scroll right to see more
 ConditionsComfort  
Time TempWeatherWind HumidityBarometerVisibility
5:00 AM
Sun, Jul 24
66 °FMild.1 mph64%29.98 "HgN/A
4:30 AM72 °FMild.No wind57%29.98 "HgN/A
4:00 AM70 °FMild.5 mph60%29.98 "HgN/A
3:30 AM72 °FMild.5 mph57%29.98 "HgN/A
3:00 AM72 °FMild.6 mph57%29.98 "HgN/A
2:30 AM73 °FPassing clouds.5 mph53%29.98 "HgN/A
2:00 AM77 °FPassing clouds.8 mph47%29.98 "HgN/A
1:30 AM77 °FWarm.6 mph47%29.98 "HgN/A
1:00 AM79 °FWarm.8 mph45%29.98 "HgN/A
12:30 AM79 °FPassing clouds.8 mph45%29.98 "HgN/A
12:00 AM81 °FPassing clouds.7 mph42%29.98 "HgN/A
11:30 PM
Sat, Jul 23
81 °FPassing clouds.8 mph42%29.95 "HgN/A
11:00 PM81 °FWarm.9 mph42%29.95 "HgN/A
10:30 PM81 °FWarm.8 mph42%29.95 "HgN/A
10:00 PM82 °FPleasantly warm.3 mph40%29.95 "HgN/A
9:30 PM84 °FPleasantly warm.6 mph40%29.95 "HgN/A
9:00 PM86 °FPleasantly warm.7 mph38%29.92 "HgN/A
8:30 PM91 °FHot.No wind28%29.92 "HgN/A
8:00 PM93 °FExtremely hot.3 mph26%29.92 "HgN/A
7:30 PM93 °FExtremely hot.2 mph26%29.92 "HgN/A
7:00 PM95 °FExtremely hot.3 mph25%29.92 "HgN/A
6:30 PM95 °FExtremely hot.6 mph25%29.92 "HgN/A
6:00 PM95 °FExtremely hot.7 mph25%29.92 "HgN/A
5:30 PM95 °FExtremely hot.5 mph25%29.92 "HgN/A
5:00 PM95 °FExtremely hot.6 mph23%29.95 "HgN/A
4:30 PM95 °FExtremely hot.5 mph23%29.95 "HgN/A
4:00 PM95 °FExtremely hot.6 mph23%29.95 "HgN/A
3:30 PM95 °FExtremely hot.5 mph19%29.95 "HgN/A
3:00 PM93 °FExtremely hot.8 mph21%29.98 "HgN/A
2:30 PM93 °FExtremely hot.7 mph24%29.98 "HgN/A
2:00 PM91 °FHot.3 mph28%29.98 "HgN/A
1:30 PM91 °FHot.5 mph26%29.98 "HgN/A
1:00 PM91 °FHot.6 mph30%30.01 "HgN/A
12:30 PM88 °FPleasantly warm.8 mph31%30.01 "HgN/A
12:00 PM86 °FPleasantly warm.6 mph35%30.01 "HgN/A
11:30 AM84 °FPleasantly warm.5 mph37%30.01 "HgN/A
11:00 AM84 °FPleasantly warm.6 mph37%30.01 "HgN/A
10:30 AM81 °FWarm.7 mph42%30.01 "HgN/A
10:00 AM81 °FWarm.7 mph42%30.01 "HgN/A
9:30 AM79 °FWarm.7 mph42%30.01 "HgN/A
9:00 AM77 °FWarm.7 mph44%30.01 "HgN/A
8:30 AM73 °FMild.5 mph53%30.01 "HgN/A
8:00 AM72 °FMild.6 mph57%30.01 "HgN/A
7:30 AM70 °FMild.No wind60%30.01 "HgN/A
7:00 AM66 °FMild.No wind60%30.01 "HgN/A
6:30 AM64 °FMild.3 mph64%30.01 "HgN/A
6:00 AM63 °FMild.6 mph68%30.01 "HgN/A
Weather by CustomWeather, © 2016

See weather overviewHow to use our weather pages